DW1234 Weather Reports


time (UTC)temp
C
wind
direction
speed
KPH
gust
KPH
rain 1hr
cm
rain 24hr
cm
rain mn
cm
humidity
%
barometer
mb
20260831115231 23 212 8.0 9.7 0.00 0.00 0.00 88 1012.2
20260831114743 24 222 6.4 9.7 0.00 0.00 0.00 88 1012.0
20260831114524 23 207 6.4 9.7 0.00 0.00 0.00 88 1009.3
20260831114230 24 207 6.4 9.7 0.00 0.00 0.00 88 1012.0
20260831113756 24 205 8.0 9.7 0.00 0.00 0.00 88 1011.9
20260831113245 24 205 4.8 9.7 0.00 0.00 0.00 88 1011.8
20260831113119 23 205 6.4 9.7 0.00 0.00 0.00 88 1009.0
20260831112728 24 215 6.4 9.7 0.00 0.00 0.00 88 1011.7
20260831112241 24 215 6.4 9.7 0.00 0.00 0.00 88 1011.5
20260831111753 24 205 6.4 8.0 0.00 0.00 0.00 88 1011.6
20260831111549 23 205 4.8 9.7 0.00 0.00 0.00 88 1008.7
20260831111247 24 205 4.8 9.7 0.00 0.00 0.00 88 1011.5
20260831110728 23 205 8.0 9.7 0.00 0.00 0.00 87 1011.6
20260831110235 23 205 4.8 6.4 0.00 0.00 0.00 87 1011.4
20260831110049 23 205 3.2 6.4 0.00 0.00 0.00 87 1008.6
20260831105746 24 205 3.2 6.4 0.00 0.00 0.00 87 1011.4
20260831105229 24 205 4.8 6.4 0.00 0.00 0.00 87 1011.6
20260831104801 24 205 3.2 4.8 0.00 0.00 0.00 86 1011.5
20260831104526 23 205 1.6 4.8 0.00 0.00 0.00 86 1008.7
20260831104225 24 205 3.2 4.8 0.00 0.00 0.00 86 1011.5
20260831103735 24 205 3.2 4.8 0.00 0.00 0.00 86 1011.4
20260831103247 24 205 3.2 4.8 0.00 0.00 0.00 86 1011.4
20260831103027 23 205 1.6 6.4 0.00 0.00 0.00 86 1008.6
20260831102722 24 205 1.6 6.4 0.00 0.00 0.00 86 1011.4
20260831102232 24 205 3.2 6.4 0.00 0.00 0.00 86 1011.4
20260831101745 24 205 4.8 8.0 0.00 0.00 0.00 86 1011.3
20260831101532 24 205 3.2 9.7 0.00 0.00 0.00 86 1008.5
20260831101231 24 205 4.8 9.7 0.00 0.00 0.00 86 1011.4
20260831100742 24 205 6.4 9.7 0.00 0.00 0.00 86 1011.3
20260831100225 24 205 6.4 8.0 0.00 0.00 0.00 85 1011.3
20260831100039 24 205 4.8 8.0 0.00 0.00 0.00 85 1008.5
20260831095737 24 205 4.8 8.0 0.00 0.00 0.00 85 1011.3
20260831095250 24 205 4.8 8.0 0.00 0.00 0.00 85 1011.2
20260831094730 25 205 4.8 6.4 0.00 0.00 0.00 85 1010.9
20260831094555 24 205 1.6 4.8 0.00 0.00 0.00 85 1008.1
20260831094243 25 205 3.2 4.8 0.00 0.00 0.00 85 1010.9
20260831093724 25 205 3.2 4.8 0.00 0.00 0.00 84 1010.8
20260831093238 25 205 3.2 4.8 0.00 0.00 0.00 84 1010.9
20260831093042 24 205 1.6 4.8 0.00 0.00 0.00 84 1008.0
20260831092748 25 205 1.6 4.8 0.00 0.00 0.00 84 1010.8
20260831092231 25 205 3.2 6.4 0.00 0.00 0.00 84 1010.7
20260831091744 25 205 4.8 8.0 0.00 0.00 0.00 84 1010.7
20260831091523 24 205 3.2 8.0 0.00 0.00 0.00 83 1007.9
20260831091228 25 205 3.2 8.0 0.00 0.00 0.00 83 1010.6
20260831090734 25 205 4.8 8.0 0.00 0.00 0.00 83 1010.6
20260831090306 25 205 4.8 12.9 0.00 0.00 0.00 83 1010.5
20260831090012 25 205 4.8 12.9 0.00 0.00 0.00 83 1007.8
20260831085730 25 205 8.0 12.9 0.00 0.00 0.00 83 1010.6
20260831085240 25 202 8.0 12.9 0.00 0.00 0.00 83 1010.6
20260831084726 25 206 8.0 11.3 0.00 0.00 0.00 83 1010.6
20260831084528 25 209 8.0 12.9 0.00 0.00 0.00 82 1007.8
20260831084239 25 203 9.7 14.5 0.00 0.00 0.00 82 1010.7
20260831083721 25 202 9.7 14.5 0.00 0.00 0.00 82 1010.5
20260831083228 25 200 9.7 14.5 0.00 0.00 0.00 82 1010.4
20260831083019 25 199 6.4 16.1 0.00 0.00 0.00 82 1007.5
20260831082759 25 180 9.7 16.1 0.00 0.00 0.00 82 1010.3
20260831082310 25 194 11.3 16.1 0.00 0.00 0.00 82 1010.2
20260831081733 25 166 12.9 16.1 0.00 0.00 0.00 83 1010.3
20260831081543 25 164 11.3 16.1 0.00 0.00 0.00 83 1007.5
20260831081245 25 186 12.9 16.1 0.00 0.00 0.00 83 1010.3
20260831080727 25 178 12.9 19.3 0.00 0.00 0.00 83 1010.2
20260831080239 25 169 11.3 20.9 0.00 0.00 0.00 83 1010.2
20260831080054 25 157 11.3 16.1 0.00 0.00 0.00 83 1007.3
20260831075748 25 193 12.9 16.1 0.00 0.00 0.00 83 1010.2
20260831075230 25 167 12.9 17.7 0.00 0.00 0.00 83 1010.3
20260831074744 25 161 11.3 14.5 0.00 0.00 0.00 83 1010.3
20260831074553 25 174 9.7 12.9 0.00 0.00 0.00 83 1007.5
20260831074231 25 155 11.3 16.1 0.00 0.00 0.00 83 1010.4
20260831073742 25 162 11.3 14.5 0.00 0.00 0.00 82 1010.5
20260831073228 25 163 9.7 12.9 0.00 0.00 0.00 82 1010.6
20260831073056 25 178 9.7 12.9 0.00 0.00 0.00 82 1007.7
20260831072742 25 174 9.7 12.9 0.00 0.00 0.00 82 1010.6
20260831072224 25 186 9.7 12.9 0.00 0.00 0.00 82 1010.6
20260831071732 25 167 11.3 14.5 0.00 0.00 0.00 82 1010.6
20260831071503 25 178 8.0 11.3 0.00 0.00 0.00 82 1007.8
20260831071245 25 177 8.0 11.3 0.00 0.00 0.00 82 1010.7
20260831070727 25 169 8.0 11.3 0.00 0.00 0.00 82 1010.8
20260831070239 25 176 8.0 11.3 0.00 0.00 0.00 82 1010.7
20260831070015 25 186 8.0 12.9 0.00 0.00 0.00 82 1007.9
20260831065750 25 177 8.0 12.9 0.00 0.00 0.00 82 1010.7
20260831065242 26 180 9.7 12.9 0.00 0.00 0.00 82 1010.8
20260831064723 26 213 4.8 8.0 0.00 0.00 0.00 81 1010.8
20260831064555 25 254 3.2 6.4 0.00 0.00 0.00 81 1008.0
20260831064236 26 254 4.8 6.4 0.00 0.00 0.00 81 1010.7
20260831063742 26 254 4.8 11.3 0.00 0.00 0.00 81 1010.6
20260831063225 26 254 6.4 12.9 0.00 0.00 0.00 80 1010.6
20260831063059 26 254 8.0 12.9 0.00 0.00 0.00 80 1007.8
20260831062758 26 254 8.0 12.9 0.00 0.00 0.00 79 1010.7
20260831062253 26 240 8.0 11.3 0.00 0.00 0.00 78 1010.5
20260831061753 26 286 4.8 11.3 0.00 0.00 0.00 78 1010.5
20260831061604 26 286 6.4 11.3 0.00 0.00 0.00 77 1007.6
20260831061246 27 288 8.0 11.3 0.00 0.00 0.00 77 1010.5
20260831060727 27 221 6.4 11.3 0.00 0.00 0.00 76 1010.4
20260831060234 27 175 6.4 11.3 0.00 0.00 0.00 76 1010.1
20260831060057 27 187 6.4 14.5 0.00 0.00 0.00 76 1007.2
20260831055747 27 184 8.0 14.5 0.00 0.00 0.00 76 1010.1
20260831055232 27 169 9.7 12.9 0.00 0.00 0.00 76 1010.0
20260831054743 27 202 11.3 16.1 0.00 0.00 0.00 76 1010.1
20260831054556 27 163 11.3 19.3 0.00 0.00 0.00 76 1007.2
20260831054227 27 180 11.3 19.3 0.00 0.00 0.00 76 1010.0
20260831053758 27 152 11.3 22.5 0.00 0.00 0.00 76 1009.9
20260831053221 27 165 12.9 17.7 0.00 0.00 0.00 76 1009.8
20260831053039 27 177 12.9 19.3 0.00 0.00 0.00 75 1007.0
20260831052749 28 169 12.9 17.7 0.00 0.00 0.00 75 1009.9
20260831052231 28 165 12.9 14.5 0.00 0.00 0.00 75 1010.0
20260831051743 28 143 11.3 16.1 0.00 0.00 0.00 75 1009.9
20260831051551 28 175 9.7 19.3 0.00 0.00 0.00 75 1007.1
20260831051228 28 153 12.9 19.3 0.00 0.00 0.00 75 1009.8
20260831050736 28 170 14.5 19.3 0.00 0.00 0.00 75 1009.8
20260831050249 28 158 12.9 17.7 0.00 0.00 0.00 75 1009.9
20260831050042 28 153 8.0 16.1 0.00 0.00 0.00 75 1007.0
20260831045731 28 154 8.0 14.5 0.00 0.00 0.00 75 1010.0
20260831045245 28 141 8.0 14.5 0.00 0.00 0.00 75 1010.0
20260831044724 28 132 8.0 14.5 0.00 0.00 0.00 74 1010.0
20260831044548 28 143 8.0 14.5 0.00 0.00 0.00 74 1007.1
20260831044238 28 129 9.7 16.1 0.00 0.00 0.00 74 1009.9
20260831043748 28 141 11.3 17.7 0.00 0.00 0.00 74 1009.9
20260831043240 29 126 12.9 17.7 0.00 0.00 0.00 74 1009.9
20260831043028 28 131 11.3 17.7 0.00 0.00 0.00 74 1007.0
20260831042725 29 130 9.7 14.5 0.00 0.00 0.00 74 1009.9
20260831042259 29 134 8.0 12.9 0.00 0.00 0.00 74 1009.9
20260831041807 29 117 9.7 14.5 0.00 0.00 0.00 74 1010.0
20260831041553 28 132 8.0 14.5 0.00 0.00 0.00 73 1007.1
20260831041233 29 118 8.0 14.5 0.00 0.00 0.00 73 1010.0
20260831040743 29 140 8.0 12.9 0.00 0.00 0.00 73 1010.0
20260831040229 29 130 8.0 12.9 0.00 0.00 0.00 72 1010.1
20260831040056 28 140 6.4 12.9 0.00 0.00 0.00 72 1007.2
20260831035742 29 146 4.8 8.0 0.00 0.00 0.00 71 1010.1
20260831035227 29 146 6.4 8.0 0.00 0.00 0.00 71 1010.3
20260831034800 29 146 6.4 8.0 0.00 0.00 0.00 71 1010.3
20260831034548 28 146 4.8 8.0 0.00 0.00 0.00 71 1007.5
20260831034225 29 146 4.8 8.0 0.00 0.00 0.00 71 1010.3
20260831033733 29 136 6.4 11.3 0.00 0.00 0.00 71 1010.4
20260831033306 29 147 6.4 11.3 0.00 0.00 0.00 71 1010.3
20260831033024 29 131 6.4 11.3 0.00 0.00 0.00 71 1007.5
20260831032729 29 136 6.4 11.3 0.00 0.00 0.00 71 1010.3
20260831032242 29 133 6.4 8.0 0.00 0.00 0.00 71 1010.3
20260831031727 29 133 6.4 8.0 0.00 0.00 0.00 71 1010.4
20260831031522 29 133 4.8 6.4 0.00 0.00 0.00 71 1007.6
20260831031300 29 133 4.8 6.4 0.00 0.00 0.00 71 1010.4
20260831030722 30 133 4.8 6.4 0.00 0.00 0.00 71 1010.4
20260831030229 30 133 4.8 8.0 0.00 0.00 0.00 71 1010.5
20260831030013 29 133 4.8 8.0 0.00 0.00 0.00 71 1007.7
20260831025743 30 133 4.8 8.0 0.00 0.00 0.00 71 1010.5
20260831025224 30 133 4.8 8.0 0.00 0.00 0.00 71 1010.5
20260831024756 30 133 4.8 8.0 0.00 0.00 0.00 71 1010.5
20260831024600 30 131 4.8 8.0 0.00 0.00 0.00 71 1007.6
20260831024248 30 132 4.8 8.0 0.00 0.00 0.00 70 1010.5
20260831023731 30 131 4.8 8.0 0.00 0.00 0.00 70 1010.4
20260831023243 30 134 6.4 8.0 0.00 0.00 0.00 69 1010.3
20260831023010 30 134 4.8 8.0 0.00 0.00 0.00 69 1007.5
20260831022725 30 134 4.8 8.0 0.00 0.00 0.00 69 1010.3
20260831022237 30 134 4.8 8.0 0.00 0.00 0.00 69 1010.3
20260831021746 30 134 4.8 8.0 0.00 0.00 0.00 68 1010.3
20260831021555 30 134 4.8 11.3 0.00 0.00 0.00 68 1007.3
20260831021239 30 113 6.4 11.3 0.00 0.00 0.00 67 1010.3
20260831020809 30 130 6.4 11.3 0.00 0.00 0.00 66 1010.2
20260831020231 31 131 4.8 6.4 0.00 0.00 0.00 66 1010.2
20260831020045 30 136 3.2 6.4 0.00 0.00 0.00 66 1007.3
20260831015743 31 207 4.8 6.4 0.00 0.00 0.00 65 1010.2
20260831015227 31 207 4.8 6.4 0.00 0.00 0.00 65 1010.2
20260831014734 31 207 4.8 6.4 0.00 0.00 0.00 64 1010.0
20260831014551 31 207 3.2 6.4 0.00 0.00 0.00 64 1007.0
20260831014309 31 207 3.2 4.8 0.00 0.00 0.00 64 1009.9
20260831013731 31 207 4.8 4.8 0.00 0.00 0.00 63 1009.9
20260831013243 32 207 3.2 4.8 0.00 0.00 0.00 62 1009.9
20260831013034 31 207 3.2 4.8 0.00 0.00 0.00 62 1006.9
20260831012725 32 207 1.6 4.8 0.00 0.00 0.00 61 1009.8
20260831012256 32 207 3.2 4.8 0.00 0.00 0.00 61 1009.8
20260831011743 32 207 1.6 3.2 0.00 0.00 0.00 60 1009.8
20260831011515 32 207 0.0 3.2 0.00 0.00 0.00 60 1007.0
20260831011229 32 207 1.6 3.2 0.00 0.00 0.00 60 1009.8
20260831010800 32 207 3.2 3.2 0.00 0.00 0.00 60 1009.8
20260831010249 32 207 1.6 3.2 0.00 0.00 0.00 59 1009.7
20260831010042 32 207 0.0 3.2 0.00 0.00 0.00 59 1006.8
20260831005740 33 207 1.6 3.2 0.00 0.00 0.00 59 1009.7
20260831005254 33 207 3.2 3.2 0.00 0.00 0.00 58 1009.7
20260831004802 33 207 1.6 4.8 0.00 0.00 0.00 58 1009.7
20260831004558 33 207 1.6 4.8 0.00 0.00 0.00 58 1006.7
20260831004228 33 207 1.6 4.8 0.00 0.00 0.00 58 1009.7
20260831003739 33 207 3.2 4.8 0.00 0.00 0.00 58 1009.7
20260831003223 33 207 3.2 4.8 0.00 0.00 0.00 58 1009.7
20260831003007 33 207 1.6 4.8 0.00 0.00 0.00 58 1006.8
20260831002755 33 207 3.2 4.8 0.00 0.00 0.00 58 1009.8
20260831002248 33 207 3.2 4.8 0.00 0.00 0.00 58 1009.7
20260831001734 33 207 3.2 4.8 0.00 0.00 0.00 58 1009.7
20260831001551 33 207 3.2 4.8 0.00 0.00 0.00 58 1006.8
20260831001246 34 207 3.2 4.8 0.00 0.00 0.00 58 1009.8
20260831000733 34 207 3.2 4.8 0.00 0.00 0.00 58 1009.7
20260831000248 34 207 3.2 4.8 0.00 0.00 0.00 58 1009.7
20260831000039 33 207 3.2 6.4 0.00 0.00 0.00 57 1006.8
20260830235727 34 207 3.2 6.4 0.00 0.00 0.00 57 1009.7
20260830235238 34 207 3.2 6.4 0.00 0.00 0.00 57 1009.8
20260830234721 35 207 3.2 6.4 0.00 0.00 0.00 58 1009.7
20260830234555 34 207 1.6 6.4 0.00 0.00 0.00 58 1006.9
20260830234237 35 207 3.2 6.4 0.00 0.00 0.00 58 1009.8
20260830233750 35 207 3.2 6.4 0.00 0.00 0.00 58 1009.8
20260830233237 35 207 4.8 8.0 0.00 0.00 0.00 57 1009.7
20260830233043 35 207 3.2 8.0 0.00 0.00 0.00 57 1006.8
20260830232748 35 207 4.8 9.7 0.00 0.00 0.00 57 1009.7
20260830232230 35 207 6.4 11.3 0.00 0.00 0.00 55 1009.7
20260830231803 35 207 6.4 11.3 0.00 0.00 0.00 54 1009.6
20260830231526 35 198 8.0 11.3 0.00 0.00 0.00 55 1006.7
20260830231229 35 201 6.4 11.3 0.00 0.00 0.00 55 1009.6
20260830230742 35 199 6.4 11.3 0.00 0.00 0.00 55 1009.6
20260830230227 35 182 8.0 11.3 0.00 0.00 0.00 56 1009.5
20260830230037 35 208 4.8 11.3 0.00 0.00 0.00 56 1006.6
20260830225754 35 224 6.4 9.7 0.00 0.00 0.00 55 1009.5
20260830225244 35 182 6.4 16.1 0.00 0.00 0.00 56 1009.5
20260830224728 35 202 8.0 16.1 0.00 0.00 0.00 55 1009.4
20260830224525 35 196 9.7 16.1 0.00 0.00 0.00 55 1006.6
20260830224243 35 218 9.7 12.9 0.00 0.00 0.00 55 1009.4
20260830223723 35 215 8.0 16.1 0.00 0.00 0.00 55 1009.4
20260830223234 35 215 11.3 16.1 0.00 0.00 0.00 54 1009.5
20260830223018 35 191 8.0 17.7 0.00 0.00 0.00 55 1006.6
20260830222745 35 185 9.7 17.7 0.00 0.00 0.00 55 1009.5
20260830222227 35 177 9.7 16.1 0.00 0.00 0.00 54 1009.5
20260830221734 35 209 9.7 16.1 0.00 0.00 0.00 57 1009.4
20260830221542 34 200 8.0 16.1 0.00 0.00 0.00 57 1006.6
20260830221246 35 202 9.7 14.5 0.00 0.00 0.00 58 1009.4
20260830220725 34 197 9.7 14.5 0.00 0.00 0.00 57 1009.5
20260830220237 34 215 8.0 12.9 0.00 0.00 0.00 58 1009.5
20260830220034 34 211 6.4 11.3 0.00 0.00 0.00 59 1006.7
20260830215721 34 192 6.4 11.3 0.00 0.00 0.00 58 1009.6
20260830215233 33 195 6.4 11.3 0.00 0.00 0.00 59 1009.7
20260830214746 33 214 8.0 11.3 0.00 0.00 0.00 59 1009.5
20260830214534 33 200 4.8 8.0 0.00 0.00 0.00 59 1006.6
20260830214231 33 211 6.4 8.0 0.00 0.00 0.00 61 1009.4
20260830213756 33 198 4.8 9.7 0.00 0.00 0.00 57 1009.4
20260830213306 33 177 6.4 11.3 0.00 0.00 0.00 54 1009.4
20260830213053 33 194 6.4 11.3 0.00 0.00 0.00 54 1006.5
20260830212726 34 184 8.0 11.3 0.00 0.00 0.00 54 1009.5
20260830212238 34 202 6.4 12.9 0.00 0.00 0.00 53 1009.4
20260830211808 34 198 6.4 17.7 0.00 0.00 0.00 55 1009.5
20260830211531 33 205 8.0 19.3 0.00 0.00 0.00 54 1006.7
20260830211230 34 215 11.3 19.3 0.00 0.00 0.00 53 1009.5
20260830210734 33 204 12.9 16.1 0.00 0.00 0.00 55 1009.6
20260830210246 33 199 11.3 24.1 0.00 0.00 0.00 58 1009.6
20260830210036 32 217 11.3 24.1 0.00 0.00 0.00 58 1006.7
20260830205729 33 217 14.5 19.3 0.00 0.00 0.00 60 1009.7
20260830205242 32 205 12.9 17.7 0.00 0.00 0.00 62 1009.8
20260830204726 32 221 9.7 17.7 0.00 0.00 0.00 66 1009.8
20260830204552 31 213 9.7 17.7 0.00 0.00 0.00 67 1007.0
20260830204241 31 212 11.3 16.1 0.00 0.00 0.00 64 1010.1
20260830203752 31 211 9.7 17.7 0.00 0.00 0.00 62 1010.2
20260830203244 32 222 9.7 17.7 0.00 0.00 0.00 60 1010.1
20260830203031 32 218 12.9 17.7 0.00 0.00 0.00 59 1007.5
20260830202723 32 214 11.3 16.1 0.00 0.00 0.00 58 1010.1
20260830202235 32 231 9.7 16.1 0.00 0.00 0.00 58 1009.9
20260830201747 33 208 9.7 16.1 0.00 0.00 0.00 57 1009.8
20260830201537 32 207 6.4 16.1 0.00 0.00 0.00 57 1006.9
20260830201234 33 218 8.0 16.1 0.00 0.00 0.00 56 1009.6
20260830200745 33 219 9.7 16.1 0.00 0.00 0.00 58 1009.7
20260830200228 33 209 9.7 16.1 0.00 0.00 0.00 57 1009.8
20260830200045 33 207 9.7 16.1 0.00 0.00 0.00 58 1007.0
20260830195740 33 197 11.3 16.1 0.00 0.00 0.00 57 1010.0
20260830195224 33 203 11.3 19.3 0.00 0.00 0.00 61 1010.1
20260830194729 33 218 11.3 19.3 0.00 0.00 0.00 60 1010.3
20260830194515 32 225 12.9 19.3 0.00 0.00 0.00 59 1007.6
20260830194244 32 214 14.5 20.9 0.00 0.00 0.00 62 1010.3
20260830193726 32 213 8.0 17.7 0.00 0.00 0.00 63 1010.4
20260830193238 32 203 12.9 17.7 0.00 0.00 0.00 63 1010.6
20260830193015 32 200 11.3 19.3 0.00 0.00 0.00 63 1007.8
20260830192748 32 197 11.3 16.1 0.00 0.00 0.00 64 1010.5
20260830192230 32 208 11.3 17.7 0.00 0.00 0.00 64 1010.4
20260830191741 32 194 9.7 19.3 0.00 0.00 0.00 63 1010.4
20260830191518 31 210 11.3 16.1 0.00 0.00 0.00 63 1007.6
20260830191225 32 207 9.7 16.1 0.00 0.00 0.00 63 1010.4
20260830190731 32 203 9.7 16.1 0.00 0.00 0.00 62 1010.3
20260830190302 32 202 11.3 17.7 0.00 0.00 0.00 59 1010.3
20260830190124 32 217 8.0 17.7 0.00 0.00 0.00 60 1007.4
20260830185724 32 159 9.7 17.7 0.00 0.00 0.00 60 1010.0
20260830185236 32 207 9.7 16.1 0.00 0.00 0.00 62 1010.2
20260830184749 32 190 9.7 19.3 0.00 0.00 0.00 62 1010.2
20260830184539 31 209 11.3 19.3 0.00 0.00 0.00 62 1007.5
20260830184241 31 153 11.3 19.3 0.00 0.00 0.00 61 1010.3
20260830183723 31 209 9.7 14.5 0.00 0.00 0.00 63 1010.2
20260830183249 31 205 9.7 16.1 0.00 0.00 0.00 61 1010.2
20260830183051 31 213 8.0 16.1 0.00 0.00 0.00 61 1007.6
20260830182730 31 180 9.7 16.1 0.00 0.00 0.00 60 1010.3
20260830182240 31 203 8.0 17.7 0.00 0.00 0.00 61 1010.4
20260830181722 31 174 9.7 22.5 0.00 0.00 0.00 60 1010.5
20260830181554 31 215 14.5 20.9 0.00 0.00 0.00 59 1007.7
20260830181234 31 210 14.5 29.0 0.00 0.00 0.00 59 1010.5
20260830180743 31 183 14.5 29.0 0.00 0.00 0.00 57 1010.7
20260830180227 32 186 19.3 27.4 0.00 0.00 0.00 57 1010.7
20260830180110 32 190 17.7 22.5 0.00 0.00 0.00 55 1008.0
20260830180002 32 209 16.1 27.4 0.00 0.00 0.00 56 1008.0
20260830175734 32 200 16.1 27.4 0.00 0.00 0.00 58 1010.7
20260830175244 32 219 16.1 27.4 0.00 0.00 0.00 56 1010.7
20260830174727 32 212 17.7 32.2 0.00 0.00 0.00 56 1010.7
20260830174515 31 170 17.7 27.4 0.00 0.00 0.00 57 1008.0
20260830174240 32 189 17.7 27.4 0.00 0.00 0.00 57 1010.7
20260830173722 32 183 16.1 27.4 0.00 0.00 0.00 55 1010.8
20260830173233 32 213 17.7 29.0 0.00 0.00 0.00 54 1010.8
20260830173012 32 160 17.7 29.0 0.00 0.00 0.00 54 1008.2
20260830172804 32 169 14.5 29.0 0.00 0.00 0.00 54 1010.8
20260830172227 32 210 14.5 29.0 0.00 0.00 0.00 55 1010.9
20260830171734 32 215 16.1 22.5 0.00 0.00 0.00 56 1010.9
20260830171549 32 192 14.5 22.5 0.00 0.00 0.00 55 1008.2
20260830171307 32 202 14.5 24.1 0.00 0.00 0.00 56 1010.8
20260830170729 32 173 17.7 25.7 0.00 0.00 0.00 56 1010.8
20260830170301 32 173 16.1 25.7 0.00 0.00 0.00 57 1010.8
20260830170055 32 138 17.7 24.1 0.00 0.00 0.00 56 1008.2
20260830165722 32 157 14.5 24.1 0.00 0.00 0.00 57 1010.8
20260830165252 32 177 11.3 25.7 0.00 0.00 0.00 60 1010.8
20260830164738 32 175 12.9 25.7 0.00 0.00 0.00 59 1010.8
20260830164534 31 171 14.5 25.7 0.00 0.00 0.00 58 1008.2
20260830164223 32 147 12.9 24.1 0.00 0.00 0.00 61 1010.9
20260830163731 31 171 12.9 25.7 0.00 0.00 0.00 60 1010.9
20260830163242 31 180 16.1 32.2 0.00 0.00 0.00 58 1010.8
20260830163041 31 186 12.9 32.2 0.00 0.00 0.00 59 1008.2
20260830162724 31 153 19.3 32.2 0.00 0.00 0.00 59 1010.8
20260830162234 31 165 12.9 22.5 0.00 0.00 0.00 60 1010.7
20260830161746 31 184 16.1 25.7 0.00 0.00 0.00 60 1010.8
20260830161549 30 185 11.3 19.3 0.00 0.00 0.00 60 1008.2
20260830161231 31 171 14.5 19.3 0.00 0.00 0.00 62 1010.8
20260830160736 30 167 12.9 19.3 0.00 0.00 0.00 62 1010.8
20260830160248 30 171 12.9 24.1 0.00 0.00 0.00 60 1010.7
20260830160042 30 190 12.9 24.1 0.00 0.00 0.00 62 1008.1
20260830155732 30 157 12.9 24.1 0.00 0.00 0.00 62 1010.7
20260830155243 30 159 12.9 17.7 0.00 0.00 0.00 61 1010.8
20260830154732 30 132 12.9 16.1 0.00 0.00 0.00 60 1010.8
20260830154516 30 162 9.7 17.7 0.00 0.00 0.00 61 1008.3
20260830154245 30 177 11.3 19.3 0.00 0.00 0.00 62 1010.9
20260830153726 30 173 11.3 16.1 0.00 0.00 0.00 63 1011.0
20260830153234 30 200 9.7 24.1 0.00 0.00 0.00 63 1010.9
20260830153014 29 185 12.9 24.1 0.00 0.00 0.00 63 1008.3
20260830152745 29 186 12.9 24.1 0.00 0.00 0.00 63 1011.0
20260830152228 29 185 11.3 16.1 0.00 0.00 0.00 66 1010.9
20260830151738 28 161 9.7 17.7 0.00 0.00 0.00 66 1010.7
20260830151512 28 173 11.3 17.7 0.00 0.00 0.00 66 1008.2
20260830151250 28 165 6.4 14.5 0.00 0.00 0.00 68 1010.8
20260830150738 28 162 9.7 14.5 0.00 0.00 0.00 69 1010.8
20260830150249 27 161 6.4 16.1 0.00 0.00 0.00 68 1010.7
20260830150046 27 153 6.4 16.1 0.00 0.00 0.00 69 1008.2
20260830145733 27 167 12.9 16.1 0.00 0.00 0.00 70 1010.7
20260830145238 27 163 8.0 14.5 0.00 0.00 0.00 69 1010.7
20260830144748 27 171 8.0 16.1 0.00 0.00 0.00 69 1010.8
20260830144546 26 160 3.2 16.1 0.00 0.00 0.00 69 1008.2
20260830144231 27 192 9.7 17.7 0.00 0.00 0.00 69 1010.7
20260830143742 26 166 11.3 17.7 0.00 0.00 0.00 69 1010.2
20260830143224 26 175 9.7 17.7 0.00 0.00 0.00 70 1010.4
20260830143042 26 177 11.3 17.7 0.00 0.00 0.00 71 1007.7
20260830142736 26 138 11.3 17.7 0.00 0.00 0.00 71 1010.2
20260830142221 26 144 8.0 14.5 0.00 0.00 0.00 72 1010.3
20260830141732 26 161 9.7 19.3 0.00 0.00 0.00 72 1010.4
20260830141545 25 178 9.7 19.3 0.00 0.00 0.00 72 1007.8
20260830141241 26 176 9.7 19.3 0.00 0.00 0.00 71 1010.5
20260830140722 26 174 8.0 12.9 0.00 0.00 0.00 71 1010.5
20260830140235 25 155 8.0 14.5 0.00 0.00 0.00 71 1010.6
20260830140050 25 153 6.4 14.5 0.00 0.00 0.00 71 1008.0
20260830135745 25 143 8.0 12.9 0.00 0.00 0.00 71 1010.5
20260830135229 25 150 6.4 11.3 0.00 0.00 0.00 71 1010.5
20260830134800 25 139 3.2 11.3 0.00 0.00 0.00 72 1010.6
20260830134541 25 139 3.2 11.3 0.00 0.00 0.00 72 1008.0
20260830134223 25 139 6.4 11.3 0.00 0.00 0.00 72 1010.5
20260830133731 25 136 6.4 8.0 0.00 0.00 0.00 72 1010.5
20260830133243 25 140 4.8 8.0 0.00 0.00 0.00 72 1010.5
20260830133036 25 128 4.8 11.3 0.00 0.00 0.00 71 1008.0
20260830132725 25 146 3.2 16.1 0.00 0.00 0.00 72 1010.7
20260830132238 25 146 4.8 16.1 0.00 0.00 0.00 71 1010.7
20260830131722 25 138 8.0 12.9 0.00 0.00 0.00 71 1010.6
20260830131534 25 139 4.8 14.5 0.00 0.00 0.00 71 1008.2
20260830131235 25 157 6.4 14.5 0.00 0.00 0.00 71 1010.6
20260830130745 25 207 8.0 16.1 0.00 0.00 0.00 71 1010.6
20260830130251 25 160 9.7 17.7 0.00 0.00 0.00 71 1010.6
20260830130002 25 157 9.7 17.7 0.00 0.00 0.00 71 1008.1
20260830125740 25 157 9.7 17.7 0.00 0.00 0.00 71 1010.6
20260830125225 25 160 11.3 17.7 0.00 0.00 0.00 70 1010.5
20260830124734 25 161 11.3 19.3 0.00 0.00 0.00 70 1010.6
20260830124511 25 163 11.3 24.1 0.00 0.00 0.00 70 1008.1
20260830124247 25 195 14.5 24.1 0.00 0.00 0.00 69 1010.5
20260830123727 25 147 16.1 24.1 0.00 0.00 0.00 69 1010.5
20260830123238 25 165 16.1 19.3 0.00 0.00 0.00 69 1010.6
20260830123010 25 178 12.9 20.9 0.00 0.00 0.00 69 1008.2
20260830122751 25 166 14.5 19.3 0.00 0.00 0.00 69 1010.7
20260830122238 25 197 12.9 17.7 0.00 0.00 0.00 70 1010.8
20260830121749 25 164 12.9 19.3 0.00 0.00 0.00 70 1010.8
20260830121553 25 163 14.5 22.5 0.00 0.00 0.00 70 1008.4
20260830121234 25 163 14.5 24.1 0.00 0.00 0.00 70 1010.7
20260830120742 25 165 14.5 24.1 0.00 0.00 0.00 70 1010.7
20260830120228 25 176 12.9 19.3 0.00 0.00 0.00 71 1010.7
20260830115739 25 175 12.9 19.3 0.00 0.00 0.00 71 1010.7